Regional Weather Roundup
Issued by NWS

Home | Current Version | Previous Version | Text Only | Print | Product List | Glossary On
Versions: 1 2 3 4 5 6 7 8 9 10 11 12 13 14 15 16 17 18 19 20 21 22 23 24 25 26 27 28 29 30 31 32 33 34 35 36 37 38 39 40 41 42 43 44 45 46 47 48 49 50
000
ASUS44 KMEG 140610
RWRTN
TENNESSEE HOURLY STATE WEATHER ROUNDUP
NATIONAL WEATHER SERVICE MEMPHIS TN
1200 AM CST SUN FEB 14 2016

TNZ002-004-019-021-049-052-054-088>092-140700-
WEST TENNESSEE

CITY           SKY/WX    TMP DP  RH WIND       PRES   REMARKS
MEMPHIS INTL   CLOUDY    31   9  39 E9        30.32F WCI  23
NWS MEMPHIS      N/A     28 N/A N/A MISG        N/A
JACKSON        PTCLDY    27   9  46 E6        30.37F WCI  20
DYERSBURG      PTCLDY    27  10  50 E5        30.40S WCI  21
UNION CITY     CLOUDY    27   9  46 E8        30.37F WCI  18
PARIS          CLOUDY    25   3  39 E9        30.38F WCI  15
LEXINGTON      CLOUDY    27   1  33 E8        30.36F WCI  18
$$

TNZ008-025-027-028-033-062-065-066-140700-
NORTH MIDDLE TENNESSEE

CITY           SKY/WX    TMP DP  RH WIND       PRES   REMARKS
NASHVILLE      CLOUDY    27   5  39 E3        30.43R
CLARKSVILLE    CLOUDY    25   8  48 E7        30.43S WCI  17
SMYRNA         CLOUDY    26   7  44 E5        30.44R WCI  20
COOKEVILLE     CLOUDY    21  10  63 NE3       30.37F
CROSSVILLE     CLEAR     19   4  51 NE5       30.33S WCI  12
$$

TNZ061-075-076-078-094-096-097-140700-
SOUTH MIDDLE TENNESSEE

CITY           SKY/WX    TMP DP  RH WIND       PRES   REMARKS
FAYETTEVILLE   CLEAR     23   9  54 N5        30.37F WCI  17
TULLAHOMA      MOCLDY    25   3  39 NE5       30.38S WCI  19
WINCHESTER     PTCLDY    23  10  58 CALM      30.38S
MCMINNVILLE    CLOUDY    23   7  50 NE5       30.38R SQUALL  WCI  17
COLUMBIA       CLOUDY    27   9  46 E7        30.37F WCI  19
SHELBYVILLE    CLOUDY    27  10  50 CALM      30.41S
$$

TNZ017-018-042-046-047-140700-
NORTHEAST TENNESSEE

CITY           SKY/WX    TMP DP  RH WIND       PRES   REMARKS
TRI CITIES     CLOUDY    13   5  70 CALM      30.38F
$$

TNZ012-013-036-069-073-074-140700-
CENTRAL EAST TENNESSEE

CITY           SKY/WX    TMP DP  RH WIND       PRES   REMARKS
KNOXVILLE      CLOUDY    20   7  57 NE8       30.38F WCI  10
OAK RIDGE      CLOUDY    22   5  48 NE3       30.41F
GATLINBURG     CLEAR     16   9  73 CALM      30.39S
MORRISTOWN     CLEAR     16   5  62 CALM      30.37S
$$

TNZ083-085-099-140700-
SOUTHEAST TENNESSEE

CITY           SKY/WX    TMP DP  RH WIND       PRES   REMARKS
CHATTANOOGA    CLEAR     27   4  37 N8        30.40R WCI  19
$$

SKY/WX REPORTED AS FAIR MEANS FEW OR NO CLOUDS BELOW
12 THOUSAND FEET.




USA.gov is the U.S. government's official web portal to all federal, state and local government web resources and services.